This is the latest recevied weather packets stored in our database for station/object EA3ABN-1. If no packets are shown the sender has not sent any weather packets the latest 10 day(s).
| Time | Temp. | Humidity | Pressure | Rain* | Wind** | Luminosity | Snow |
|---|---|---|---|---|---|---|---|
| 1777284879 | 31.67° C | 33% | 1014.9 hPa | - | - | - | - |
| 1777283979 | 31.67° C | 33% | 1015 hPa | - | - | - | - |
| 1777283095 | 31.67° C | 33% | 1015.2 hPa | - | - | - | - |
| 1777277979 | 28.33° C | 33% | 1015.7 hPa | - | - | - | - |
| 1777276179 | 27.78° C | 33% | 1015.9 hPa | - | - | - | - |
| 1777275895 | 27.78° C | 32% | 1015.9 hPa | - | - | - | - |
| 1777275579 | 27.22° C | 32% | 1016 hPa | - | - | - | - |
| 1777274379 | 27.22° C | 33% | 1016 hPa | - | - | - | - |
| 1777272279 | 25° C | 33% | 1016.1 hPa | - | - | - | - |
| 1777271379 | 25° C | 32% | 1016.1 hPa | - | - | - | - |
| 1777270479 | 25° C | 32% | 1016 hPa | - | - | - | - |
| 1777267779 | 24.44° C | 32% | 1015.7 hPa | - | - | - | - |
| 1777266279 | 24.44° C | 32% | 1015.7 hPa | - | - | - | - |
| 1777265679 | 24.44° C | 32% | 1015.6 hPa | - | - | - | - |
| 1777265394 | 24.44° C | 31% | 1015.6 hPa | - | - | - | - |
| 1777264510 | 24.44° C | 32% | 1015.3 hPa | - | - | - | - |
| 1777263278 | 25° C | 32% | 1015.2 hPa | - | - | - | - |
| 1777260279 | 25° C | 32% | 1015.2 hPa | - | - | - | - |
| 1777258495 | 25° C | 32% | 1015.3 hPa | - | - | - | - |
| 1777257579 | 25° C | 32% | 1015.3 hPa | - | - | - | - |
| 1777254578 | 25° C | 32% | 1015.2 hPa | - | - | - | - |
| 1777253678 | 25° C | 32% | 1015.3 hPa | - | - | - | - |
| 1777251579 | 25° C | 32% | 1015.5 hPa | - | - | - | - |
| 1777250979 | 25° C | 32% | 1015.6 hPa | - | - | - | - |
| 1777249778 | 25.56° C | 32% | 1015.9 hPa | - | - | - | - |
* Rain since midnight (hover to see other rain measurements)
** Current wind speed in m/s (hover to see current wind gust speed)